Weather History for KAUW - November, 2010

Change the Weather History Date:

Saturday, November 13, 2010

  Actual Average Record
Temperature  
Mean Temperature 37 °F 34 °F  
Max Temperature 41 °F 42 °F 67 °F (1999)
Min Temperature 33 °F 26 °F -3 °F (1986)
Degree Days  
Heating Degree Days 28 31  
Month to date heating degree days 308 367  
Since 1 July heating degree days 1078 1251  
Cooling Degree Days 0 0  
Month to date cooling degree days 0 0  
Year to date cooling degree days 560 407  
Moisture  
Dew Point 37 °F    
Average Humidity 88    
Maximum Humidity 100    
Minimum Humidity 75    
Precipitation  
Precipitation 0.84 in 0.07 in 0.84 in (2010)
Month to date precipitation 1.09 0.92  
Year to date precipitation 35.13 29.97  
Snow  
Snow T in 0.20 in 3.50 in (1914)
Month to date snowfall T 1.7  
Since 1 July snowfall T 3.1  
Snow Depth 0.00 in    
Sea Level Pressure  
Sea Level Pressure 29.86 in    
Wind  
Wind Speed 14 mph (ESE)    
Max Wind Speed 29 mph    
Max Gust Speed 37 mph    
Visibility 7 miles    
Events Rain    
T = Trace of Precipitation, MM = Missing Value Source: NWS Daily Summary

Daily Weather History Graph

Daily Weather History Graph

Search for Another Location

Airport or City:

Trip Planner

Search our weather history database for the weather conditions in past years. The results will help you decide how hot, cold, wet, or windy it might be!

Date:

Astronomy

Nov. 13, 2010 Rise Set
Actual Time 6:53 AM CST 4:31 PM CST
Civil Twilight 6:21 AM CST 5:03 PM CST
Nautical Twilight 5:46 AM CST 5:38 PM CST
Astronomical Twilight 5:11 AM CST 6:13 PM CST
Moon 12:44 PM CST (11/13) 11:45 PM CST (11/13)
Length of Visible Light 10h 41m
Length of Day
9h 38m
Waxing Crescent, 51% of the Moon is Illuminated
Nov 13
Waxing Crescent
Nov 21
Full
Nov 28
Last Quarter
Dec 5
New
Dec 13
First Quarter

Hourly Weather History & Observations

Time (CST) Temp. Windchill Dew Point Humidity Pressure Visibility Wind Dir Wind Speed Gust Speed Precip Events Conditions
12:54 AM 34.0 °F 27.2 °F 30.0 °F 85% 30.31 in 7.0 mi NNE 8.1 mph - 0.03 in Rain Light Rain
1:54 AM 34.0 °F 28.0 °F 30.0 °F 85% 30.33 in 5.0 mi ENE 6.9 mph - 0.08 in Rain Rain
2:54 AM 33.1 °F 24.4 °F 30.0 °F 89% 30.27 in 6.0 mi NE 11.5 mph 18.4 mph 0.08 in Rain Light Rain
3:54 AM 34.0 °F 25.5 °F 33.1 °F 96% 30.23 in 6.0 mi ENE 11.5 mph 20.7 mph 0.09 in Rain Rain
4:54 AM 34.0 °F 23.4 °F 34.0 °F 100% 30.19 in 7.0 mi ENE 17.3 mph 29.9 mph 0.11 in Rain Light Rain
5:54 AM 34.0 °F 22.4 °F 34.0 °F 100% 30.14 in 6.0 mi East 20.7 mph 27.6 mph 0.07 in Rain Light Rain
6:54 AM 34.0 °F 22.4 °F 34.0 °F 100% 30.09 in 10.0 mi East 20.7 mph 28.8 mph 0.10 in Rain Light Rain
7:23 AM 35.6 °F 25.5 °F 35.6 °F 100% 30.03 in 8.0 mi East 17.3 mph 27.6 mph 0.02 in Rain Light Rain
7:54 AM 35.1 °F 23.8 °F 35.1 °F 100% 30.05 in 10.0 mi East 20.7 mph 28.8 mph 0.04 in Rain Light Rain
8:54 AM 36.0 °F 25.3 °F 36.0 °F 100% 30.01 in 10.0 mi ENE 19.6 mph 31.1 mph 0.01 in Rain Light Rain
9:41 AM 35.6 °F 24.0 °F 35.6 °F 100% 29.92 in 10.0 mi ENE 23.0 mph 31.1 mph 0.01 in   Overcast
9:54 AM 37.0 °F 26.4 °F 37.0 °F 100% 29.97 in 10.0 mi East 20.7 mph 32.2 mph 0.01 in   Overcast
10:54 AM 37.9 °F 26.6 °F 37.9 °F 100% 29.95 in 10.0 mi East 25.3 mph 35.7 mph 0.00 in Rain Light Rain
11:54 AM 37.9 °F 29.6 °F 36.0 °F 93% 29.92 in 6.0 mi East 13.8 mph 20.7 mph 0.02 in Rain Light Rain
12:54 PM 37.9 °F 27.9 °F 37.9 °F 100% 29.86 in 5.0 mi East 19.6 mph 31.1 mph 0.06 in Rain Light Rain
1:27 PM 39.2 °F 29.6 °F 39.2 °F 100% 29.77 in 9.0 mi East 19.6 mph 26.5 mph 0.01 in Rain Light Rain
1:45 PM 39.2 °F 29.3 °F 39.2 °F 100% 29.75 in 10.0 mi East 20.7 mph 28.8 mph 0.01 in Rain Light Rain
1:54 PM 39.0 °F 29.3 °F 39.0 °F 100% 29.79 in 9.0 mi East 19.6 mph 29.9 mph 0.01 in Rain Light Rain
2:54 PM 39.9 °F 30.8 °F 37.9 °F 93% 29.77 in 8.0 mi East 18.4 mph 25.3 mph 0.00 in   Overcast
3:54 PM 39.9 °F 32.1 °F 39.0 °F 97% 29.75 in 6.0 mi East 13.8 mph 21.9 mph 0.00 in Rain Light Rain
4:54 PM 39.9 °F 31.8 °F 39.0 °F 97% 29.73 in 3.0 mi East 15.0 mph 20.7 mph 0.01 in Rain Light Rain
5:54 PM 39.9 °F 33.9 °F 39.9 °F 100% 29.72 in 3.0 mi ENE 9.2 mph - 0.03 in Rain Light Rain
6:41 PM 39.2 °F 35.0 °F 39.2 °F 100% 29.66 in 3.0 mi Variable 5.8 mph - 0.04 in Rain Light Rain
6:50 PM 39.2 °F 35.9 °F 39.2 °F 100% 29.66 in 2.5 mi SE 4.6 mph - 0.04 in Rain Light Rain
6:51 PM 39.2 °F 35.0 °F 39.2 °F 100% 29.66 in 2.5 mi SE 5.8 mph - 0.04 in Rain Light Rain
6:54 PM 39.9 °F 35.1 °F 39.9 °F 100% 29.71 in 3.0 mi South 6.9 mph - 0.04 in Rain Light Rain
7:03 PM 41.0 °F 35.8 °F 39.2 °F 93% 29.66 in 5.0 mi South 8.1 mph - 0.01 in Rain Light Rain
7:54 PM 37.9 °F 30.5 °F 37.9 °F 100% 29.71 in 3.0 mi South 11.5 mph - 0.02 in Rain Light Rain
8:13 PM 37.4 °F 30.8 °F 37.4 °F 100% 29.66 in 9.0 mi South 9.2 mph - 0.00 in   Overcast
8:40 PM 37.4 °F 29.3 °F 37.4 °F 100% 29.66 in 10.0 mi South 12.7 mph - 0.00 in   Overcast
8:54 PM 37.9 °F 30.9 °F 37.9 °F 100% 29.70 in 10.0 mi South 10.4 mph - 0.00 in   Overcast
9:05 PM 37.4 °F 31.4 °F 37.4 °F 100% 29.66 in 10.0 mi South 8.1 mph - N/A   Overcast
9:42 PM 37.4 °F 30.3 °F 37.4 °F 100% 29.65 in 10.0 mi South 10.4 mph - 0.00 in Rain Light Rain
9:54 PM 37.0 °F 30.4 °F 37.0 °F 100% 29.69 in 10.0 mi South 9.2 mph - 0.00 in Rain Light Rain
10:01 PM 37.4 °F 30.3 °F 37.4 °F 100% 29.65 in 10.0 mi South 10.4 mph - 0.00 in   Overcast
10:54 PM 36.0 °F 29.6 °F 36.0 °F 100% 29.69 in 8.0 mi South 8.1 mph - 0.01 in   Overcast
11:54 PM 36.0 °F 29.6 °F 36.0 °F 100% 29.68 in 9.0 mi South 8.1 mph - 0.00 in   Overcast